Flag for Brazil Weather past 2 weeks in Belém, Para, Brazil

Now
82 °F

Scattered clouds.


Feels Like: 88 °F
Forecast: 75 / 90 °F
Wind: 7 mph from Northeast

Location: Belem Aeroporto

Current Time: Oct 2, 2014 at 9:33:55 AM

Latest Report: Oct 2, 2014 at 9:00 AM


Visibility: N/A

Pressure: 29.95 "Hg

Humidity: 74%

Dew point: 73 °F

Location of BelémLocation

Historic Weather in Belém — Graph

°F

Belém temperature yesterday

Maximum temperature yesterday: 86 °F (at 10:00 AM)
Minimum temperature yesterday: 73 °F (at 6:00 AM)
Average temperature yesterday: 80 °F

Past Weeks' High & Low Weather Summary

 TemperatureHumidityPressure
High91 °F (Sep 28, 2:00 PM)100% (Sep 18, 6:00 AM)29.98 "Hg (Sep 18, 6:00 AM)
Low36 °F (Sep 18, 4:00 PM)49% (Sep 28, 2:00 PM)29.80 "Hg (Sep 17, 4:00 PM)
Average79 °F80%29.89 "Hg
* Reported Sep 17 8:00 AM — Oct 2 8:00 AM, Belém, Weather by CustomWeather, © 2014

Note: Actual official high and low records may vary slightly from our data, if they occured in-between our weather recording intervals... More about our weather records

Advertising

Belém weather history for previous 24 hours

 ConditionsComfort  
Time TempWeatherWind HumidityBarometerVisibility
8:00 AM
Oct 2
81 °FPassing clouds.7 mph84%29.92 "HgN/A
7:00 AM77 °FSunny.6 mph94%29.92 "Hg10 mi
6:00 AM75 °FSunny.2 mph94%29.89 "Hg10 mi
5:00 AM75 °FClear.6 mph94%29.86 "Hg10 mi
4:00 AM77 °FClear.5 mph89%29.86 "Hg10 mi
3:00 AM77 °FPassing clouds.6 mph89%29.86 "HgN/A
2:00 AM77 °FPassing clouds.3 mph89%29.86 "HgN/A
1:00 AM77 °FPartly cloudy.5 mph89%29.89 "HgN/A
12:00 AM77 °FPassing clouds.7 mph94%29.89 "HgN/A
11:00 PM
Oct 1
77 °FPassing clouds.6 mph89%29.89 "HgN/A
10:00 PM79 °FPassing clouds.6 mph89%29.92 "HgN/A
9:00 PM81 °FPassing clouds.6 mph79%29.92 "HgN/A
8:00 PM81 °FPassing clouds.8 mph79%29.89 "HgN/A
7:00 PM81 °FPassing clouds.8 mph84%29.86 "HgN/A
6:00 PM82 °FScattered clouds.8 mph79%29.86 "HgN/A
5:00 PM82 °FScattered clouds.6 mph79%29.86 "HgN/A
4:00 PM84 °FScattered showers. Partly sunny.9 mph79%29.86 "HgN/A
3:00 PM82 °FRain. Partly sunny.12 mph84%29.89 "Hg1 mi
2:00 PM84 °FPartly sunny.9 mph74%29.89 "HgN/A
1:00 PM84 °FPartly sunny.7 mph74%29.92 "HgN/A
12:00 PM84 °FPartly sunny.12 mph70%29.92 "HgN/A
11:00 AM86 °FPartly sunny.9 mph62%29.95 "HgN/A
10:00 AM86 °FPartly sunny.12 mph62%29.98 "HgN/A
9:00 AM82 °FPartly sunny.9 mph74%29.95 "HgN/A
Weather by CustomWeather, © 2014

See weather overviewHow to use our weather pages